This is the latest recevied weather packets stored in our database for station/object EA3CO-11. If no packets are shown the sender has not sent any weather packets the latest 10 day(s).
| Time | Temp. | Humidity | Pressure | Rain* | Wind** | Luminosity | Snow |
|---|---|---|---|---|---|---|---|
| 1778134684 | 14.44° C | 94% | 1016.3 hPa | - | - | - | - |
| 1778133784 | 15° C | 92% | 1016.2 hPa | - | - | - | - |
| 1778132884 | 14.44° C | 94% | 1016.1 hPa | - | - | - | - |
| 1778131984 | 13.89° C | 94% | 1016 hPa | - | - | - | - |
| 1778131084 | 13.89° C | 93% | 1015.8 hPa | - | - | - | - |
| 1778130184 | 13.33° C | 94% | 1015.8 hPa | - | - | - | - |
| 1778129284 | 12.78° C | 96% | 1015.7 hPa | - | - | - | - |
| 1778128383 | 12.78° C | 95% | 1015.6 hPa | - | - | - | - |
| 1778127483 | 13.33° C | 93% | 1015.6 hPa | - | - | - | - |
| 1778126583 | 13.33° C | 93% | 1015.7 hPa | - | - | - | - |
| 1778125683 | 13.33° C | 92% | 1015.5 hPa | - | - | - | - |
| 1778124783 | 13.33° C | 92% | 1015.6 hPa | - | - | - | - |
| 1778123883 | 13.33° C | 94% | 1015.7 hPa | - | - | - | - |
| 1778122983 | 13.33° C | 94% | 1015.7 hPa | - | - | - | - |
| 1778122083 | 13.89° C | 90% | 1015.7 hPa | - | - | - | - |
| 1778121182 | 13.89° C | 92% | 1015.7 hPa | - | - | - | - |
| 1778120282 | 13.89° C | 93% | 1015.7 hPa | - | - | - | - |
| 1778119382 | 13.89° C | 93% | 1015.7 hPa | - | - | - | - |
| 1778118482 | 13.89° C | 94% | 1015.9 hPa | - | - | - | - |
| 1778117582 | 13.89° C | 91% | 1015.9 hPa | - | - | - | - |
| 1778116682 | 14.44° C | 93% | 1015.9 hPa | - | - | - | - |
| 1778115782 | 14.44° C | 92% | 1016 hPa | - | - | - | - |
| 1778114882 | 14.44° C | 94% | 1016.1 hPa | - | - | - | - |
| 1778113982 | 14.44° C | 93% | 1016.1 hPa | - | - | - | - |
| 1778113082 | 14.44° C | 97% | 1016.3 hPa | - | - | - | - |
* Rain since midnight (hover to see other rain measurements)
** Current wind speed in m/s (hover to see current wind gust speed)